Regional Weather Roundup
Issued by NWS

Home | Current Version | Previous Version | Text Only | Print | Product List | Glossary On
Versions: 1 2 3 4 5 6 7 8 9 10 11 12 13 14 15 16 17 18 19 20 21 22 23 24 25 26 27 28 29 30 31 32 33 34 35 36 37 38 39 40 41 42 43 44 45 46 47 48 49 50
000
ASUS44 KFWD 230201
RWRTX
NORTH TEXAS HOURLY WEATHER ROUNDUP
NATIONAL WEATHER SERVICE FORT WORTH TX
900 PM CDT MON SEP 22 2014

NOTE: "FAIR" INDICATES FEW OR NO CLOUDS BELOW 12,000 FEET WITH NO
SIGNIFICANT WEATHER AND/OR OBSTRUCTIONS TO VISIBILITY.

TXZ118-119-230300-
DALLAS/FORT WORTH METROPLEX

CITY           SKY/WX    TMP DP  RH WIND       PRES   REMARKS
DFW AIRPORT    PTCLDY    77  50  38 NE12      30.13R
DALLAS LOVE    PTCLDY    76  51  41 E7        30.14R
FTW MEACHAM    CLEAR     78  50  37 NE13      30.13R
DAL-EXECUTIVE  CLEAR     78  49  35 NE9       30.13R
FTW-ALLIANCE   MOCLDY    74  50  42 NE9       30.13R
FTW-NAS-JRB    PTCLDY    81  50  33 NE10      30.17R
ARLINGTON      CLEAR     78  48  34 NE7       30.13R
GRAND PRAIRIE  CLEAR     78  46  32 NE8       30.14R
ADDISON        CLEAR     77  48  36 NE9       30.14R
LANCASTER      CLEAR     73  48  40 NE7       30.14R
$$

TXZ091>094-102>105-117-120-121-131>134-230300-
NORTH CENTRAL TEXAS

CITY           SKY/WX    TMP DP  RH WIND       PRES   REMARKS
SHRMAN/DENISON CLEAR     71  54  55 E3        30.17R
BRIDGEPORT     CLEAR     71  49  46 E5        30.17R
DENTON         CLEAR     73  51  46 NE9       30.15R
MCKINNEY       CLEAR     71  52  50 NE6       30.15R
GREENVILLE     CLEAR     70  52  52 CALM      30.15R
ROCKWALL       CLEAR     71  53  52 NE6       30.14R
TERRELL        CLEAR     72  50  45 NE5       30.14R
WAXAHACHIE     CLEAR     75  45  34 NE7       30.15R
CLEBURNE       CLEAR     77  46  33 NE7       30.15R
$$

TXZ083>090-098>101-113>116-127>130-139>142-154-155-230300-
WESTERN NORTH TEXAS

CITY           SKY/WX    TMP DP  RH WIND       PRES   REMARKS
WICHITA FALLS  PTCLDY    73  52  47 E6        30.15R
WF-KICKAPOO    PTCLDY    73  50  44 E6        30.17R
VERNON         PTCLDY    74  50  43 E5        30.17S
ABILENE        PTCLDY    79  61  53 E6        30.15R
ABILENE-DYESS  PTCLDY    79  57  47 NE3       30.14R
MINERAL WELLS  CLEAR     76  45  33 NE7       30.13R
STEPHENVILLE   PTCLDY    76  53  45 E5        30.16R
COMANCHE       PTCLDY    76  62  62 E5        30.14R
COLEMAN        PTCLDY    77  65  67 E6        30.15R
$$

TXZ143>147-156>162-174-175-230300-
CENTRAL TEXAS

CITY           SKY/WX    TMP DP  RH WIND       PRES   REMARKS
WACO           CLEAR     75  56  51 NE6       30.10R
WACO-TSTC      CLEAR     75  59  57 NE3       30.11
WACO-MCGREGOR  CLEAR     79  55  44 NE7       30.12R
CORSICANA      CLEAR     75  52  44 NE6       30.13R
MEXIA          CLEAR     74  55  51 NE5       30.10R
HEARNE         PTCLDY    75  67  76 CALM      30.08R
TEMPLE         CLEAR     77  57  50 NE7       30.10R
KILLEEN        PTCLDY    81  63  54 NE8       30.11R
KILLEEN-SKYLRK CLEAR     79  61  53 NE6       30.10R
FORT HOOD      CLEAR     81  62  52 NE6       30.11R
HAMILTON       PTCLDY    78  62  59 E6        30.15R
LAMPASAS       PTCLDY    78  69  73 NE6       30.12R
$$

TXZ095>097-106>112-122>126-135>138-148>153-164>167-230300-
EAST TEXAS

CITY           SKY/WX    TMP DP  RH WIND       PRES   REMARKS
PARIS          CLEAR     68  52  56 E6        30.17R
SULPHUR SPRNGS CLEAR     69  52  55 E5        30.17R
MOUNT PLEASANT CLEAR     66  55  68 N5        30.16R
MINEOLA        CLEAR     68  54  60 CALM      30.15R
TYLER          CLEAR     72  55  55 N5        30.13R
LONGVIEW       CLEAR     73  51  46 NE7       30.12R
MARSHALL       CLEAR     73  54  51 N3        30.15R
ATHENS         CLEAR     72  52  49 NE6       30.12R
PALESTINE      CLEAR     72  56  57 N5        30.12R
JACKSONVILLE   CLEAR     73  51  45 N5        30.14R
HENDERSON      CLEAR     71  53  52 NE6       30.13R
NACOGDOCHES    CLEAR     73  54  49 N5        30.11R
LUFKIN         CLEAR     78  55  44 NE6       30.09R
$$

SUPPLEMENTAL OBSERVATIONS (CENTRAL)

CITY           SKY/WX    TMP DP  RH WIND       PRES   REMARKS
$$

SUPPLEMENTAL OBSERVATIONS (WEST)

CITY           SKY/WX    TMP DP  RH WIND       PRES   REMARKS
$$

SUPPLEMENTAL OBSERVATIONS (EAST)

CITY           SKY/WX    TMP DP  RH WIND       PRES   REMARKS
$$

SUPPLEMENTAL OBSERVATIONS ARE A COLLECTION OF AUTOMATED INSTRUMENTS
THAT ARE MAINTAINED BY A VARIETY OF FEDERAL AND STATE AGENCIES.
CERTAIN ELEMENTS...SUCH AS HUMIDITY VALUES AND SUSTAINED WIND
SPEEDS...MAY BE APPROXIMATED.




USA.gov is the U.S. government's official web portal to all federal, state and local government web resources and services.